Tracking 30995 objects as of 7-Jul-2025
HD Live streaming from Space Station
objects crossing your sky now

ARIANE 1 DEB

Track ARIANE 1 DEB now!


NORAD ID: 27732
Int'l Code: 1979-104S
Perigee: 863.0 km
Apogee: 40,852.7 km
Inclination: 16.1 °
Period: 745.3 minutes
Semi major axis: 27228 km
RCS: 0.2067 m2 (medium)
Launch date: December 24, 1979
Source: European Space Agency (ESA)
Launch site: FRENCH GUIANA (FRGUI)

Note: This is SATELLITE DEBRIS
Your satellite tracking list
FENGYUN 1C DEB
Track 1 satellite(s)




NASA's NSSDC Master Catalog

Two Line Element Set (TLE):
1 27732U 79104S   25187.10568659 -.00000136  00000-0  13340-2 0  9999
2 27732  16.1355  98.3554 7343262  11.5987 358.7060  1.93223114 79355
Source of the keplerian elements: AFSPC